Salisbury, MD

6:02 PM EDT on May 26, 2017 (GMT -0400)
Salisbury-Ocean City Wicomico Regional

Weather History for KSBY - December, 2012

Change the Weather History Date:

Monday, December 3, 2012

  Actual Average Record
Temperature  
Mean Temperature 59 °F 42 °F  
Max Temperature 72 °F 52 °F 72 °F (1991)
Min Temperature 46 °F 33 °F 14 °F (1976)
Degree Days  
Heating Degree Days 6 22  
Month to date heating degree days 39 66  
Since 1 July heating degree days 783 884  
Cooling Degree Days 0 0  
Month to date cooling degree days 0 0  
Year to date cooling degree days 1732 1153  
Growing Degree Days 10 (Base 50)    
Moisture  
Dew Point 49 °F    
Average Humidity 71    
Maximum Humidity 93    
Minimum Humidity 49    
Precipitation  
Precipitation 0.00 in 0.13 in 1.67 in (1948)
Month to date precipitation T 0.39  
Year to date precipitation 39.97 42.36  
Snow  
Snow 0.00 in 0.00 in - ()
Month to date snowfall 0.0 0.1  
Since 1 July snowfall 0.0 0.3  
Snow Depth 0.00 in    
Sea Level Pressure  
Sea Level Pressure 30.23 in    
Wind  
Wind Speed 3 mph (SSW)    
Max Wind Speed 14 mph    
Max Gust Speed 18 mph    
Visibility 9 miles    
Events Fog    
T = Trace of Precipitation, MM = Missing Value Source: NWS Daily Summary

Daily Weather History Graph

Daily Weather History Graph

Search for Another Location

Airport or City:

Trip Planner

Search our weather history database for the weather conditions in past years. The results will help you decide how hot, cold, wet, or windy it might be!

Date:

Astronomy

Dec. 03, 2012 Rise Set
Actual Time 7:02 AM EST 4:41 PM EST
Civil Twilight 6:33 AM EST 5:10 PM EST
Nautical Twilight 6:00 AM EST 5:43 PM EST
Astronomical Twilight 5:28 AM EST 6:15 PM EST
Moon 9:23 PM EST (12/3) 10:26 AM EST (12/3)
Length of Visible Light 10h 37m
Length of Day
9h 39m
Waning Gibbous, 78% of the Moon is Illuminated
Dec 3
Waning Gibbous
Dec 6
Last Quarter
Dec 13
New
Dec 20
First Quarter
Dec 28
Full

Hourly Weather History & Observations

Time (EST) Temp. Dew Point Humidity Pressure Visibility Wind Dir Wind Speed Gust Speed Precip Events Conditions
12:54 AM 59.0 °F 48.0 °F 67% 30.18 in 10.0 mi SSW 12.7 mph - N/A   Overcast
1:54 AM 57.9 °F 48.0 °F 70% 30.18 in 10.0 mi SW 10.4 mph - N/A   Mostly Cloudy
2:54 AM 53.1 °F 46.9 °F 80% 30.19 in 10.0 mi SSW 5.8 mph - N/A   Clear
3:54 AM 53.1 °F 48.0 °F 83% 30.19 in 10.0 mi SW 3.5 mph - N/A   Partly Cloudy
4:54 AM 53.1 °F 48.0 °F 83% 30.19 in 10.0 mi Calm Calm - N/A   Overcast
5:54 AM 50.0 °F 46.9 °F 89% 30.21 in 7.0 mi Calm Calm - N/A   Clear
6:54 AM 48.0 °F 46.0 °F 93% 30.23 in 5.0 mi Calm Calm - N/A Fog Shallow Fog
7:54 AM 48.9 °F 45.0 °F 86% 30.25 in 4.0 mi Calm Calm - N/A   Mostly Cloudy
8:54 AM 53.1 °F 48.9 °F 86% 30.26 in 6.0 mi Calm Calm - N/A   Partly Cloudy
11:54 AM 70.0 °F 51.1 °F 51% 30.23 in 10.0 mi Calm Calm - N/A   Clear
12:54 PM 71.1 °F 51.1 °F 49% 30.22 in 10.0 mi NW 3.5 mph - N/A   Clear
2:54 PM 72.0 °F 52.0 °F 49% 30.20 in 10.0 mi WNW 3.5 mph - N/A   Clear
3:54 PM 70.0 °F 52.0 °F 53% 30.21 in 10.0 mi Calm Calm - N/A   Clear
4:54 PM 63.0 °F 53.1 °F 70% 30.24 in 10.0 mi Calm Calm - N/A   Clear
5:54 PM 57.9 °F 52.0 °F 81% 30.26 in 10.0 mi East 3.5 mph - N/A   Clear
6:54 PM 55.0 °F 50.0 °F 83% 30.27 in 10.0 mi Calm Calm - N/A   Clear
7:54 PM 52.0 °F 48.0 °F 86% 30.27 in 9.0 mi ESE 4.6 mph - N/A   Overcast
8:54 PM 54.0 °F 50.0 °F 86% 30.27 in 9.0 mi Calm Calm - N/A   Overcast
9:54 PM 53.1 °F 50.0 °F 89% 30.27 in 7.0 mi Calm Calm - N/A   Overcast
10:54 PM 53.1 °F 50.0 °F 89% 30.27 in 6.0 mi ESE 3.5 mph - N/A   Overcast
11:54 PM 52.0 °F 48.9 °F 89% 30.27 in 7.0 mi South 4.6 mph - N/A   Mostly Cloudy